Regional Weather Roundup
Issued by NWS Mt. Holly, NJ

Home | Current Version | Previous Version | Text Only | Print | Product List | Glossary On
Versions: 1 2 3 4 5 6 7 8 9 10 11 12 13 14 15 16 17 18 19 20 21 22 23 24 25 26 27 28 29 30 31 32 33 34 35 36 37 38 39 40 41 42 43 44 45 46 47
000
ASUS41 KPHI 120010
RWRPHI

REGIONAL WEATHER ROUNDUP
NATIONAL WEATHER SERVICE MOUNT HOLLY NJ
800 PM EDT FRI JUL 11 2014

NOTE:  "FAIR" INDICATES FEW OR NO CLOUDS BELOW 12,000 FEET WITH NO
SIGNIFICANT WEATHER AND/OR OBSTRUCTIONS TO VISIBILITY.

 * = STATION DOES NOT REPORT PRECIPITATION (E.G. RAIN, SNOW, ETC.)
        OR FOG.

NJZ015>026-120100-
SOUTHERN NEW JERSEY

CITY           SKY/WX    TMP DP  RH WIND       PRES   REMARKS
POMONA         CLEAR     72  63  73 SE5       30.19S
6HR MIN TEMP:  72; 6HR MAX TEMP:  82;

RIO GRANDE*    CLEAR     73  64  73 E6        30.20S
MILLVILLE      CLEAR     73  66  78 E3        30.19S
WRIGHTSTOWN    CLEAR     77  62  59 SE5       30.16R
MOUNT HOLLY    PTCLDY    78  60  53 SE3       30.18R
TRENTON        PTCLDY    80  60  50 S8        30.17R
6HR MIN TEMP:  80; 6HR MAX TEMP:  86;


$$
NJZ001>014-120100-
NORTHERN NEW JERSEY

CITY           SKY/WX    TMP DP  RH WIND       PRES   REMARKS
SUSSEX         CLEAR     78  65  63 CALM      30.20R
ANDOVER*         N/A     74  65  73 CALM      30.20S
MORRISTOWN     MOCLDY    79  61  53 S8        30.19R
NEWARK         MOCLDY    75  63  66 S7        30.19R
TETERBORO      PTCLDY    80  61  52 S8        30.17R
CALDWELL       PTCLDY    78  60  53 S10       30.19R
SOMERVILLE     CLOUDY    81  60  48 E3        30.16R
ALLAIRE*       CLEAR     73  61  64 SE6       30.19S
TOMS RIVER*    CLEAR     75  63  64 CALM      30.20R

$$
PAZ043-044-047-054-055-060>062-066>071-120100-
EASTERN PENNSYLVANIA

CITY           SKY/WX    TMP DP  RH WIND       PRES   REMARKS
PHILADELPHIA   MOCLDY    81  62  52 S8        30.18R
6HR MIN TEMP:  81; 6HR MAX TEMP:  90;

NORTH PHILA    PTCLDY    81  59  47 S8        30.19R
BLUE BELL      MOCLDY    82  61  47 SE5       30.17R
DOYLESTOWN     CLOUDY    78  61  55 CALM      30.17S
QUAKERTOWN*    MOCLDY    81  64  57 NE3       30.20R
POTTSTOWN      PTCLDY    79  62  56 CALM      30.19R
LANCASTER      PTCLDY    79  62  56 S5        30.17S
COATESVILLE    CLEAR     77  63  61 CALM      30.19F
READING        CLEAR     82  62  50 N3        30.17R
6HR MIN TEMP:  82; 6HR MAX TEMP:  87;

ALLENTOWN      CLEAR     79  62  56 CALM      30.18S
6HR MIN TEMP:  79; 6HR MAX TEMP:  86;

MOUNT POCONO   CLEAR     71  59  65 SE3       30.25R
6HR MIN TEMP:  71; 6HR MAX TEMP:  76;

HAZLETON       CLEAR     72  61  68 CALM      30.26S
WILKES BARRE   CLEAR     77  60  55 CALM      30.20R

$$
DEZALL-MDZ008-012-015-019-020-120100-
DELAWARE AND EASTERN MARYLAND

CITY           SKY/WX    TMP DP  RH WIND       PRES   REMARKS
WILMINGTON     CLEAR     78  69  73 S14       30.18R
6HR MIN TEMP:  78; 6HR MAX TEMP:  89;

DOVER          CLEAR     75  68  79 SE7       30.17S
GEORGETOWN     CLEAR     75  67  76 SE10      30.19S
6HR MIN TEMP:  75; 6HR MAX TEMP:  82;

EASTON         CLEAR     81  72  74 CALM      30.21S
PATUXENT       PTCLDY    78  69  73 E3        30.17R
OCEAN CITY     PTCLDY    74  69  85 E5        30.18S
WALLOPS ISLAND PTCLDY    76  69  79 E8        30.18S
CAMBRIDGE      PTCLDY    79  72  78 CALM      30.17S
SALISBURY      CLEAR     77  68  73 E3        30.18R

$$
PAZ001-021-NYZ056-072-MDZ011-DCZ001-120100-
OTHER NEARBY LOCATIONS

CITY           SKY/WX    TMP DP  RH WIND       PRES   REMARKS
HARRISBURG     PTCLDY    81  67  62 SW3       30.16R
STATE COLLEGE  CLEAR     77  61  57 CALM      30.20S
WILLIAMSPORT   CLEAR     80  60  50 S3        30.16R
BINGHAMTON     CLEAR     73  55  53 SE3       30.23R
NEW YORK CITY  CLOUDY    76  62  62 S7        30.22R
BALTIMORE      PTCLDY    81  64  56 S3        30.16S
WASHINGTON DC  MOCLDY    83  64  52 SE5       30.17R

$$


USA.gov is the U.S. government's official web portal to all federal, state and local government web resources and services.